EZY567K EGGP-EGAC

Flight info

Callsign EZY567K
Flight time N/A
Altitude 20000
Route WAL M146 ERDUV Z198 MASOP M148 MAGEE
Aircraft A320/M-SDE3FGHIRWY/LB1

Departure

Time 2026-04-29 13:28
Airport Liverpool John Lennon Airport (EGGP)

Arrival

Time N/A
Airport George Best Belfast City Airport (EGAC)
Time Latitude Longitude Altitude Speed Heading
2026-04-29 13:02 53.33665 -2.85513 113 ft 0 kts 356°
2026-04-29 13:20 53.33652 -2.85512 90 ft 4 kts 356°
2026-04-29 13:21 53.33630 -2.85510 87 ft 4 kts 15°
2026-04-29 13:21 53.33614 -2.85533 87 ft 4 kts 79°
2026-04-29 13:21 53.33612 -2.85554 90 ft 4 kts 89°
2026-04-29 13:21 53.33598 -2.85524 89 ft 4 kts 144°
2026-04-29 13:22 53.33573 -2.85510 90 ft 4 kts 169°
2026-04-29 13:22 53.33557 -2.85508 87 ft 0 kts 175°
2026-04-29 13:24 53.33515 -2.85510 88 ft 8 kts 204°
2026-04-29 13:24 53.33500 -2.85611 88 ft 12 kts 267°
2026-04-29 13:25 53.33493 -2.85760 84 ft 12 kts 265°
2026-04-29 13:25 53.33480 -2.86042 87 ft 11 kts 266°
2026-04-29 13:25 53.33475 -2.86166 84 ft 10 kts 265°
2026-04-29 13:26 53.33469 -2.86285 86 ft 10 kts 266°
2026-04-29 13:26 53.33464 -2.86401 84 ft 10 kts 265°
2026-04-29 13:26 53.33458 -2.86520 81 ft 12 kts 265°
2026-04-29 13:26 53.33440 -2.86674 75 ft 14 kts 239°
2026-04-29 13:27 53.33358 -2.86726 77 ft 13 kts 167°
2026-04-29 13:27 53.33291 -2.86626 71 ft 13 kts 110°
2026-04-29 13:27 53.33292 -2.86525 75 ft 8 kts 85°
2026-04-29 13:27 53.33298 -2.86406 73 ft 13 kts 85°
2026-04-29 13:28 53.33314 -2.86001 77 ft 68 kts 83°
2026-04-29 13:28 53.33369 -2.84860 89 ft 125 kts 85°
2026-04-29 13:28 53.33457 -2.83384 693 ft 126 kts 86°
2026-04-29 13:28 53.33538 -2.81811 1168 ft 145 kts 88°
2026-04-29 13:29 53.33601 -2.80029 1708 ft 164 kts 85°
2026-04-29 13:29 53.33984 -2.78072 2212 ft 190 kts 68°
2026-04-29 13:29 53.34709 -2.76194 2716 ft 217 kts 53°
2026-04-29 13:29 53.35961 -2.74513 3280 ft 245 kts 32°
2026-04-29 13:30 53.37643 -2.73661 4169 ft 262 kts 11°
2026-04-29 13:30 53.39516 -2.73983 4996 ft 282 kts 346°
2026-04-29 13:30 53.41241 -2.75731 5795 ft 300 kts 316°
2026-04-29 13:30 53.42341 -2.78661 6698 ft 304 kts 287°
2026-04-29 13:31 53.42555 -2.82133 7584 ft 301 kts 259°
2026-04-29 13:31 53.42189 -2.85598 8477 ft 303 kts 256°
2026-04-29 13:31 53.41790 -2.89093 9349 ft 307 kts 256°
2026-04-29 13:31 53.41385 -2.92639 10211 ft 312 kts 256°
2026-04-29 13:32 53.41122 -2.95026 10620 ft 321 kts 258°